This is the latest recevied weather packets stored in our database for station/object KR8N. If no packets are shown the sender has not sent any weather packets the latest 10 day(s).
| Time | Temp. | Humidity | Pressure | Rain* | Wind** | Luminosity | Snow |
|---|---|---|---|---|---|---|---|
| 1777944188 | 16.67° C | 51% | 1014.7 hPa | 0 mm | - | 0 W/m² | - |
| 1777943883 | 16.67° C | 51% | 1014.5 hPa | 0 mm | - | 0 W/m² | - |
| 1777943581 | 16.67° C | 52% | 1014.6 hPa | 0 mm | - | 0 W/m² | - |
| 1777943277 | 17.22° C | 51% | 1014.9 hPa | 0 mm | - | 0 W/m² | - |
| 1777942973 | 17.22° C | 50% | 1014.6 hPa | 0 mm | - | 0 W/m² | - |
| 1777942669 | 17.22° C | 50% | 1014.6 hPa | 0 mm | - | 0 W/m² | - |
| 1777942367 | 17.22° C | 50% | 1014.6 hPa | 0 mm | - | 0 W/m² | - |
| 1777942063 | 17.22° C | 50% | 1014.6 hPa | 0 mm | - | 0 W/m² | - |
| 1777941759 | 17.78° C | 49% | 1014.6 hPa | 0 mm | - | 0 W/m² | - |
| 1777941457 | 17.78° C | 49% | 1014.6 hPa | 0 mm | - | 0 W/m² | - |
| 1777941155 | 17.78° C | 49% | 1014.4 hPa | 0 mm | - | 0 W/m² | - |
| 1777940851 | 18.33° C | 48% | 1014.5 hPa | 0 mm | - | 1 W/m² | - |
| 1777940548 | 18.33° C | 47% | 1014.6 hPa | 0 mm | - | 2 W/m² | - |
| 1777940246 | 18.89° C | 47% | 1014.4 hPa | 0 mm | - | 3 W/m² | - |
| 1777939943 | 18.89° C | 47% | 1014.6 hPa | 0 mm | - | 5 W/m² | - |
| 1777939640 | 19.44° C | 46% | 1014.4 hPa | 0 mm | - | 8 W/m² | - |
| 1777939338 | 19.44° C | 45% | 1014.4 hPa | 0 mm | - | 12 W/m² | - |
| 1777939034 | 20° C | 44% | 1014.4 hPa | 0 mm | - | 15 W/m² | - |
| 1777938730 | 20° C | 44% | 1014.2 hPa | 0 mm | - | 18 W/m² | - |
| 1777938428 | 20° C | 43% | 1014.3 hPa | 0 mm | - | 20 W/m² | - |
| 1777938125 | 20° C | 43% | 1014.4 hPa | 0 mm | - | 20 W/m² | - |
| 1777937821 | 20.56° C | 43% | 1014.3 hPa | 0 mm | - | 23 W/m² | - |
| 1777937517 | 21.11° C | 42% | 1014.3 hPa | 0 mm | - | 26 W/m² | - |
| 1777937214 | 21.67° C | 40% | 1014.2 hPa | 0 mm | - | 33 W/m² | - |
| 1777936911 | 22.22° C | 39% | 1014.3 hPa | 0 mm | - | 46 W/m² | - |
* Rain latest hour (hover to see other rain measurements)
** Current wind speed in m/s (hover to see current wind gust speed)